| time (UTC) | temp C | wind direction | speed KPH | gust KPH | rain 1hr cm | rain 24hr cm | rain mn cm | humidity % | barometer mb |
| 20260906221604 | 33 | 64 | 3.2 | 12.9 | 0.00 | 0.00 | 0.00 | 32 | 1000.0 |
| 20260906220105 | 33 | 13 | 3.2 | 11.3 | 0.00 | 0.00 | 0.00 | 30 | 1000.1 |
| 20260906215605 | 33 | 67 | 3.2 | 11.3 | 0.00 | 0.00 | 0.00 | 30 | 1000.2 |
| 20260906215104 | 33 | 5 | 3.2 | 9.7 | 0.00 | 0.00 | 0.00 | 31 | 1000.2 |
| 20260906214605 | 33 | 16 | 1.6 | 9.7 | 0.00 | 0.00 | 0.00 | 32 | 1000.3 |
| 20260906214105 | 33 | 12 | 3.2 | 8.0 | 0.00 | 0.00 | 0.00 | 30 | 1000.4 |
| 20260906213604 | 33 | 19 | 3.2 | 9.7 | 0.00 | 0.00 | 0.00 | 31 | 1000.4 |
| 20260906213104 | 33 | 56 | 3.2 | 9.7 | 0.00 | 0.00 | 0.00 | 32 | 1000.5 |
| 20260906212604 | 33 | 53 | 3.2 | 8.0 | 0.00 | 0.00 | 0.00 | 31 | 1000.6 |
| 20260906212104 | 33 | 332 | 3.2 | 12.9 | 0.00 | 0.00 | 0.00 | 31 | 1000.6 |
| 20260906211604 | 33 | 10 | 3.2 | 12.9 | 0.00 | 0.00 | 0.00 | 31 | 1000.7 |
| 20260906211104 | 33 | 23 | 1.6 | 4.8 | 0.00 | 0.00 | 0.00 | 31 | 1000.7 |
| 20260906210605 | 33 | 352 | 3.2 | 9.7 | 0.00 | 0.00 | 0.00 | 31 | 1000.8 |
| 20260906210105 | 33 | 138 | 1.6 | 9.7 | 0.00 | 0.00 | 0.00 | 31 | 1000.9 |
| 20260906205605 | 33 | 350 | 3.2 | 11.3 | 0.00 | 0.00 | 0.00 | 32 | 1001.0 |
| 20260906205105 | 33 | 3 | 3.2 | 12.9 | 0.00 | 0.00 | 0.00 | 32 | 1001.1 |
| 20260906204605 | 33 | 0 | 3.2 | 16.1 | 0.00 | 0.00 | 0.00 | 32 | 1001.1 |
| 20260906204105 | 33 | 340 | 4.8 | 16.1 | 0.00 | 0.00 | 0.00 | 32 | 1001.3 |
| 20260906203605 | 33 | 264 | 0.0 | 8.0 | 0.00 | 0.00 | 0.00 | 33 | 1001.3 |
| 20260906203104 | 32 | 321 | 3.2 | 8.0 | 0.00 | 0.00 | 0.00 | 32 | 1001.4 |
| 20260906202604 | 32 | 159 | 1.6 | 14.5 | 0.00 | 0.00 | 0.00 | 32 | 1001.5 |
| 20260906202105 | 32 | 353 | 1.6 | 14.5 | 0.00 | 0.00 | 0.00 | 33 | 1001.6 |
| 20260906201604 | 32 | 359 | 3.2 | 14.5 | 0.00 | 0.00 | 0.00 | 31 | 1001.6 |
| 20260906201104 | 33 | 3 | 3.2 | 8.0 | 0.00 | 0.00 | 0.00 | 31 | 1001.7 |
| 20260906200604 | 33 | 337 | 1.6 | 4.8 | 0.00 | 0.00 | 0.00 | 32 | 1001.8 |
| 20260906200104 | 32 | 333 | 1.6 | 9.7 | 0.00 | 0.00 | 0.00 | 32 | 1001.7 |
| 20260906195604 | 32 | 353 | 3.2 | 9.7 | 0.00 | 0.00 | 0.00 | 31 | 1001.8 |
| 20260906195105 | 32 | 342 | 1.6 | 8.0 | 0.00 | 0.00 | 0.00 | 34 | 1001.9 |
| 20260906194605 | 32 | 81 | 3.2 | 8.0 | 0.00 | 0.00 | 0.00 | 33 | 1001.9 |
| 20260906194105 | 31 | 34 | 1.6 | 8.0 | 0.00 | 0.00 | 0.00 | 34 | 1002.1 |
| 20260906193605 | 31 | 12 | 4.8 | 8.0 | 0.00 | 0.00 | 0.00 | 33 | 1002.2 |
| 20260906192604 | 31 | 332 | 1.6 | 8.0 | 0.00 | 0.00 | 0.00 | 35 | 1002.5 |
| 20260906192104 | 31 | 338 | 1.6 | 11.3 | 0.00 | 0.00 | 0.00 | 36 | 1002.6 |
| 20260906191604 | 31 | 23 | 3.2 | 11.3 | 0.00 | 0.00 | 0.00 | 35 | 1002.7 |
| 20260906191104 | 31 | 5 | 1.6 | 4.8 | 0.00 | 0.00 | 0.00 | 36 | 1002.8 |
| 20260906190605 | 31 | 46 | 1.6 | 9.7 | 0.00 | 0.00 | 0.00 | 37 | 1002.7 |
| 20260906190105 | 31 | 350 | 3.2 | 9.7 | 0.00 | 0.00 | 0.00 | 36 | 1002.9 |
| 20260906185604 | 31 | 71 | 1.6 | 4.8 | 0.00 | 0.00 | 0.00 | 37 | 1002.9 |
| 20260906184604 | 30 | 28 | 1.6 | 8.0 | 0.00 | 0.00 | 0.00 | 37 | 1003.3 |
| 20260906184104 | 30 | 43 | 1.6 | 8.0 | 0.00 | 0.00 | 0.00 | 38 | 1003.3 |
| 20260906183605 | 30 | 0 | 1.6 | 8.0 | 0.00 | 0.00 | 0.00 | 39 | 1003.4 |
| 20260906183104 | 30 | 33 | 3.2 | 4.8 | 0.00 | 0.00 | 0.00 | 38 | 1003.5 |
| 20260906182604 | 30 | 73 | 0.0 | 4.8 | 0.00 | 0.00 | 0.00 | 39 | 1003.6 |
| 20260906182104 | 30 | 326 | 0.0 | 4.8 | 0.00 | 0.00 | 0.00 | 41 | 1003.8 |
| 20260906181604 | 29 | 357 | 1.6 | 4.8 | 0.00 | 0.00 | 0.00 | 40 | 1003.9 |
| 20260906181104 | 28 | 224 | 0.0 | 4.8 | 0.00 | 0.00 | 0.00 | 42 | 1004.1 |
| 20260906180604 | 28 | 5 | 1.6 | 4.8 | 0.00 | 0.00 | 0.00 | 40 | 1004.2 |
| 20260906180104 | 28 | 8 | 1.6 | 4.8 | 0.00 | 0.00 | 0.00 | 40 | 1004.4 |
| 20260906175604 | 28 | 21 | 1.6 | 4.8 | 0.00 | 0.00 | 0.00 | 40 | 1004.4 |
| 20260906175104 | 28 | 352 | 1.6 | 4.8 | 0.00 | 0.00 | 0.00 | 40 | 1004.5 |
| 20260906174604 | 27 | 66 | 1.6 | 4.8 | 0.00 | 0.00 | 0.00 | 41 | 1004.7 |
| 20260906174104 | 27 | 23 | 1.6 | 8.0 | 0.00 | 0.00 | 0.00 | 41 | 1004.8 |
| 20260906173604 | 27 | 157 | 0.0 | 8.0 | 0.00 | 0.00 | 0.00 | 42 | 1004.8 |
| 20260906173104 | 27 | 55 | 3.2 | 8.0 | 0.00 | 0.00 | 0.00 | 42 | 1004.9 |
| 20260906172604 | 27 | 81 | 1.6 | 4.8 | 0.00 | 0.00 | 0.00 | 42 | 1005.1 |
| 20260906172105 | 27 | 333 | 3.2 | 4.8 | 0.00 | 0.00 | 0.00 | 41 | 1005.3 |
| 20260906171605 | 27 | 0 | 1.6 | 4.8 | 0.00 | 0.00 | 0.00 | 41 | 1005.3 |
| 20260906171104 | 27 | 71 | 1.6 | 4.8 | 0.00 | 0.00 | 0.00 | 42 | 1005.5 |
| 20260906170604 | 27 | 101 | 0.0 | 4.8 | 0.00 | 0.00 | 0.00 | 42 | 1005.6 |
| 20260906170106 | 27 | 9 | 1.6 | 4.8 | 0.00 | 0.00 | 0.00 | 41 | 1005.7 |
| 20260906165604 | 26 | 348 | 0.0 | 4.8 | 0.00 | 0.00 | 0.00 | 43 | 1005.7 |
| 20260906164604 | 26 | 317 | 0.0 | 4.8 | 0.00 | 0.00 | 0.00 | 44 | 1005.9 |
| 20260906164104 | 26 | 57 | 1.6 | 4.8 | 0.00 | 0.00 | 0.00 | 45 | 1005.9 |
| 20260906163604 | 26 | 327 | 1.6 | 4.8 | 0.00 | 0.00 | 0.00 | 45 | 1005.9 |
| 20260906163104 | 25 | 40 | 1.6 | 4.8 | 0.00 | 0.00 | 0.00 | 45 | 1005.9 |
| 20260906162604 | 25 | 148 | 1.6 | 3.2 | 0.00 | 0.00 | 0.00 | 45 | 1006.0 |
| 20260906162105 | 25 | 21 | 1.6 | 4.8 | 0.00 | 0.00 | 0.00 | 43 | 1005.9 |
| 20260906161604 | 25 | 50 | 0.0 | 4.8 | 0.00 | 0.00 | 0.00 | 43 | 1005.9 |
| 20260906161105 | 25 | 65 | 1.6 | 4.8 | 0.00 | 0.00 | 0.00 | 44 | 1005.9 |
| 20260906160604 | 25 | 355 | 1.6 | 3.2 | 0.00 | 0.00 | 0.00 | 44 | 1005.9 |
| 20260906155604 | 25 | 71 | 0.0 | 3.2 | 0.00 | 0.00 | 0.00 | 47 | 1006.0 |
| 20260906155104 | 24 | 313 | 0.0 | 3.2 | 0.00 | 0.00 | 0.00 | 49 | 1005.9 |
| 20260906154604 | 23 | 342 | 1.6 | 3.2 | 0.00 | 0.00 | 0.00 | 48 | 1005.9 |
| 20260906154105 | 23 | 312 | 0.0 | 3.2 | 0.00 | 0.00 | 0.00 | 48 | 1005.9 |
| 20260906153604 | 23 | 28 | 0.0 | 3.2 | 0.00 | 0.00 | 0.00 | 50 | 1005.9 |
| 20260906153104 | 23 | 56 | 1.6 | 3.2 | 0.00 | 0.00 | 0.00 | 52 | 1005.9 |
| 20260906152604 | 22 | 71 | 0.0 | 3.2 | 0.00 | 0.00 | 0.00 | 55 | 1006.0 |
| 20260906152104 | 22 | 82 | 0.0 | 3.2 | 0.00 | 0.00 | 0.00 | 54 | 1006.0 |
| 20260906151604 | 22 | 159 | 0.0 | 3.2 | 0.00 | 0.00 | 0.00 | 57 | 1006.0 |
| 20260906151104 | 21 | 155 | 0.0 | 3.2 | 0.00 | 0.00 | 0.00 | 60 | 1006.0 |
| 20260906150105 | 20 | 234 | 1.6 | 3.2 | 0.00 | 0.00 | 0.00 | 62 | 1006.0 |
| 20260906145604 | 20 | 226 | 0.0 | 3.2 | 0.00 | 0.00 | 0.00 | 62 | 1006.0 |
| 20260906145105 | 21 | 161 | 0.0 | 3.2 | 0.00 | 0.00 | 0.00 | 62 | 1006.0 |
| 20260906144605 | 20 | 58 | 0.0 | 3.2 | 0.00 | 0.00 | 0.00 | 65 | 1006.0 |
| 20260906144104 | 20 | 52 | 0.0 | 3.2 | 0.00 | 0.00 | 0.00 | 67 | 1006.0 |
| 20260906143604 | 19 | 36 | 0.0 | 3.2 | 0.00 | 0.00 | 0.00 | 69 | 1006.1 |
| 20260906143104 | 18 | 86 | 0.0 | 3.2 | 0.00 | 0.00 | 0.00 | 70 | 1006.1 |
| 20260906142605 | 18 | 202 | 0.0 | 3.2 | 0.00 | 0.00 | 0.00 | 70 | 1006.2 |
| 20260906142105 | 17 | 201 | 0.0 | 3.2 | 0.00 | 0.00 | 0.00 | 71 | 1006.2 |
| 20260906141605 | 17 | 207 | 0.0 | 3.2 | 0.00 | 0.00 | 0.00 | 71 | 1006.2 |
| 20260906141105 | 17 | 207 | 1.6 | 3.2 | 0.00 | 0.00 | 0.00 | 71 | 1006.3 |
| 20260906140605 | 17 | 198 | 0.0 | 3.2 | 0.00 | 0.00 | 0.00 | 71 | 1006.3 |
| 20260906140105 | 17 | 197 | 0.0 | 3.2 | 0.00 | 0.00 | 0.00 | 72 | 1006.2 |
| 20260906135604 | 17 | 196 | 0.0 | 3.2 | 0.00 | 0.00 | 0.00 | 72 | 1006.2 |
| 20260906135104 | 17 | 196 | 1.6 | 3.2 | 0.00 | 0.00 | 0.00 | 71 | 1006.2 |
| 20260906134604 | 17 | 190 | 1.6 | 3.2 | 0.00 | 0.00 | 0.00 | 71 | 1006.2 |
| 20260906134104 | 16 | 96 | 0.0 | 1.6 | 0.00 | 0.00 | 0.00 | 73 | 1006.2 |
| 20260906133604 | 16 | 96 | 0.0 | 3.2 | 0.00 | 0.00 | 0.00 | 72 | 1006.1 |
| 20260906133105 | 16 | 93 | 0.0 | 3.2 | 0.00 | 0.00 | 0.00 | 72 | 1006.2 |
| 20260906132105 | 16 | 100 | 0.0 | 3.2 | 0.00 | 0.00 | 0.00 | 73 | 1006.1 |
| 20260906131605 | 16 | 139 | 0.0 | 3.2 | 0.00 | 0.00 | 0.00 | 75 | 1006.1 |
| 20260906131105 | 16 | 140 | 0.0 | 3.2 | 0.00 | 0.00 | 0.00 | 75 | 1006.0 |
| 20260906130605 | 15 | 225 | 0.0 | 3.2 | 0.00 | 0.00 | 0.00 | 75 | 1005.9 |
| 20260906130105 | 15 | 229 | 0.0 | 3.2 | 0.00 | 0.00 | 0.00 | 76 | 1005.7 |
| 20260906125604 | 15 | 229 | 0.0 | 3.2 | 0.00 | 0.00 | 0.00 | 77 | 1005.7 |
| 20260906124604 | 15 | 229 | 0.0 | 0.0 | 0.00 | 0.00 | 0.00 | 76 | 1005.6 |
| 20260906124104 | 15 | 229 | 0.0 | 0.0 | 0.00 | 0.00 | 0.00 | 76 | 1005.5 |
| 20260906123604 | 15 | 229 | 0.0 | 0.0 | 0.00 | 0.00 | 0.00 | 75 | 1005.5 |
| 20260906123105 | 15 | 229 | 0.0 | 0.0 | 0.00 | 0.00 | 0.00 | 75 | 1005.5 |
| 20260906122605 | 15 | 229 | 0.0 | 3.2 | 0.00 | 0.00 | 0.00 | 75 | 1005.5 |
| 20260906122105 | 15 | 229 | 0.0 | 3.2 | 0.00 | 0.00 | 0.00 | 75 | 1005.6 |
| 20260906121105 | 16 | 229 | 0.0 | 0.0 | 0.00 | 0.00 | 0.00 | 74 | 1005.6 |
| 20260906120604 | 16 | 229 | 0.0 | 1.6 | 0.00 | 0.00 | 0.00 | 74 | 1005.6 |
| 20260906115604 | 16 | 229 | 0.0 | 1.6 | 0.00 | 0.00 | 0.00 | 73 | 1005.7 |
| 20260906114604 | 16 | 229 | 0.0 | 3.2 | 0.00 | 0.00 | 0.00 | 72 | 1005.6 |
| 20260906114104 | 16 | 224 | 0.0 | 1.6 | 0.00 | 0.00 | 0.00 | 73 | 1005.7 |
| 20260906113605 | 16 | 224 | 0.0 | 3.2 | 0.00 | 0.00 | 0.00 | 73 | 1005.6 |
| 20260906113104 | 16 | 224 | 0.0 | 3.2 | 0.00 | 0.00 | 0.00 | 72 | 1005.6 |
| 20260906112604 | 16 | 224 | 0.0 | 3.2 | 0.00 | 0.00 | 0.00 | 71 | 1005.6 |
| 20260906112104 | 16 | 224 | 0.0 | 3.2 | 0.00 | 0.00 | 0.00 | 72 | 1005.5 |
| 20260906111105 | 16 | 224 | 0.0 | 3.2 | 0.00 | 0.00 | 0.00 | 72 | 1005.6 |
| 20260906110604 | 16 | 224 | 0.0 | 3.2 | 0.00 | 0.00 | 0.00 | 71 | 1005.4 |
| 20260906110105 | 16 | 224 | 0.0 | 0.0 | 0.00 | 0.00 | 0.00 | 68 | 1005.3 |
| 20260906105604 | 16 | 224 | 0.0 | 0.0 | 0.00 | 0.00 | 0.00 | 68 | 1005.1 |
| 20260906105105 | 16 | 224 | 0.0 | 1.6 | 0.00 | 0.00 | 0.00 | 68 | 1005.0 |
| 20260906104605 | 16 | 224 | 0.0 | 1.6 | 0.00 | 0.00 | 0.00 | 68 | 1004.9 |
| 20260906104104 | 17 | 224 | 0.0 | 1.6 | 0.00 | 0.00 | 0.00 | 68 | 1005.1 |
| 20260906103604 | 17 | 224 | 0.0 | 3.2 | 0.00 | 0.00 | 0.00 | 68 | 1005.1 |
| 20260906103104 | 17 | 224 | 0.0 | 3.2 | 0.00 | 0.00 | 0.00 | 68 | 1005.0 |
| 20260906102604 | 17 | 224 | 0.0 | 3.2 | 0.00 | 0.00 | 0.00 | 68 | 1004.9 |
| 20260906102104 | 17 | 224 | 0.0 | 3.2 | 0.00 | 0.00 | 0.00 | 69 | 1005.0 |
| 20260906101104 | 16 | 204 | 0.0 | 3.2 | 0.00 | 0.00 | 0.00 | 68 | 1004.9 |
| 20260906100604 | 17 | 204 | 0.0 | 3.2 | 0.00 | 0.00 | 0.00 | 68 | 1004.8 |
| 20260906100104 | 17 | 204 | 0.0 | 0.0 | 0.00 | 0.00 | 0.00 | 68 | 1004.8 |
| 20260906095604 | 17 | 204 | 0.0 | 1.6 | 0.00 | 0.00 | 0.00 | 68 | 1004.8 |
| 20260906095104 | 17 | 204 | 0.0 | 3.2 | 0.00 | 0.00 | 0.00 | 68 | 1004.8 |
| 20260906094604 | 17 | 194 | 0.0 | 3.2 | 0.00 | 0.00 | 0.00 | 67 | 1004.9 |
| 20260906093605 | 17 | 192 | 0.0 | 0.0 | 0.00 | 0.00 | 0.00 | 65 | 1005.0 |
| 20260906093104 | 17 | 192 | 0.0 | 1.6 | 0.00 | 0.00 | 0.00 | 64 | 1005.0 |
| 20260906092604 | 17 | 192 | 0.0 | 3.2 | 0.00 | 0.00 | 0.00 | 63 | 1005.0 |
| 20260906092104 | 18 | 192 | 0.0 | 3.2 | 0.00 | 0.00 | 0.00 | 62 | 1005.0 |
| 20260906091604 | 18 | 192 | 0.0 | 3.2 | 0.00 | 0.00 | 0.00 | 62 | 1004.9 |
| 20260906091104 | 18 | 192 | 0.0 | 3.2 | 0.00 | 0.00 | 0.00 | 62 | 1004.8 |
| 20260906090604 | 18 | 192 | 0.0 | 3.2 | 0.00 | 0.00 | 0.00 | 63 | 1004.8 |
| 20260906090104 | 18 | 230 | 0.0 | 3.2 | 0.00 | 0.00 | 0.00 | 64 | 1004.8 |
| 20260906085604 | 18 | 236 | 0.0 | 1.6 | 0.00 | 0.00 | 0.00 | 64 | 1004.7 |
| 20260906085104 | 18 | 236 | 0.0 | 3.2 | 0.00 | 0.00 | 0.00 | 65 | 1004.7 |
| 20260906084604 | 18 | 236 | 1.6 | 3.2 | 0.00 | 0.00 | 0.00 | 66 | 1004.7 |
| 20260906084104 | 18 | 228 | 1.6 | 3.2 | 0.00 | 0.00 | 0.00 | 66 | 1004.6 |
| 20260906083604 | 18 | 170 | 0.0 | 1.6 | 0.00 | 0.00 | 0.00 | 62 | 1004.6 |
| 20260906083104 | 18 | 170 | 0.0 | 0.0 | 0.00 | 0.00 | 0.00 | 61 | 1004.5 |
| 20260906082604 | 19 | 170 | 0.0 | 0.0 | 0.00 | 0.00 | 0.00 | 61 | 1004.5 |
| 20260906082105 | 19 | 170 | 0.0 | 0.0 | 0.00 | 0.00 | 0.00 | 60 | 1004.6 |
| 20260906081104 | 19 | 170 | 0.0 | 0.0 | 0.00 | 0.00 | 0.00 | 59 | 1004.6 |
| 20260906080604 | 20 | 170 | 0.0 | 3.2 | 0.00 | 0.00 | 0.00 | 60 | 1004.6 |
| 20260906080104 | 20 | 170 | 0.0 | 3.2 | 0.00 | 0.00 | 0.00 | 59 | 1004.6 |
| 20260906075604 | 20 | 170 | 0.0 | 3.2 | 0.00 | 0.00 | 0.00 | 59 | 1004.6 |
| 20260906074604 | 20 | 170 | 0.0 | 3.2 | 0.00 | 0.00 | 0.00 | 59 | 1004.6 |
| 20260906073604 | 20 | 167 | 0.0 | 4.8 | 0.00 | 0.00 | 0.00 | 54 | 1004.6 |
| 20260906073104 | 20 | 219 | 1.6 | 4.8 | 0.00 | 0.00 | 0.00 | 53 | 1004.6 |
| 20260906072605 | 20 | 237 | 3.2 | 8.0 | 0.00 | 0.00 | 0.00 | 54 | 1004.5 |
| 20260906072104 | 20 | 227 | 3.2 | 8.0 | 0.00 | 0.00 | 0.00 | 54 | 1004.5 |
| 20260906071604 | 20 | 239 | 3.2 | 8.0 | 0.00 | 0.00 | 0.00 | 54 | 1004.4 |
| 20260906071105 | 20 | 225 | 1.6 | 8.0 | 0.00 | 0.00 | 0.00 | 54 | 1004.4 |
| 20260906070605 | 21 | 226 | 1.6 | 8.0 | 0.00 | 0.00 | 0.00 | 54 | 1004.3 |
| 20260906070105 | 21 | 244 | 3.2 | 8.0 | 0.00 | 0.00 | 0.00 | 54 | 1004.3 |
| 20260906065604 | 21 | 235 | 3.2 | 8.0 | 0.00 | 0.00 | 0.00 | 54 | 1004.2 |
| 20260906065104 | 20 | 239 | 1.6 | 8.0 | 0.00 | 0.00 | 0.00 | 54 | 1004.2 |
| 20260906064104 | 21 | 228 | 3.2 | 8.0 | 0.00 | 0.00 | 0.00 | 55 | 1004.3 |
| 20260906063604 | 21 | 216 | 1.6 | 8.0 | 0.00 | 0.00 | 0.00 | 55 | 1004.4 |
| 20260906063104 | 21 | 228 | 3.2 | 8.0 | 0.00 | 0.00 | 0.00 | 55 | 1004.4 |
| 20260906062605 | 20 | 206 | 1.6 | 4.8 | 0.00 | 0.00 | 0.00 | 55 | 1004.4 |
| 20260906062105 | 21 | 202 | 0.0 | 3.2 | 0.00 | 0.00 | 0.00 | 56 | 1004.4 |
| 20260906061605 | 21 | 113 | 0.0 | 1.6 | 0.00 | 0.00 | 0.00 | 55 | 1004.6 |
| 20260906061104 | 21 | 63 | 0.0 | 3.2 | 0.00 | 0.00 | 0.00 | 55 | 1004.7 |
| 20260906060605 | 21 | 63 | 0.0 | 3.2 | 0.00 | 0.00 | 0.00 | 55 | 1004.8 |
| 20260906060105 | 21 | 66 | 0.0 | 3.2 | 0.00 | 0.00 | 0.00 | 54 | 1005.1 |
| 20260906055605 | 21 | 24 | 0.0 | 3.2 | 0.00 | 0.00 | 0.00 | 54 | 1005.2 |
| 20260906055104 | 21 | 55 | 0.0 | 4.8 | 0.00 | 0.00 | 0.00 | 54 | 1005.0 |
| 20260906054604 | 21 | 53 | 1.6 | 4.8 | 0.00 | 0.00 | 0.00 | 53 | 1004.8 |
| 20260906054104 | 21 | 149 | 0.0 | 4.8 | 0.00 | 0.00 | 0.00 | 55 | 1004.8 |
| 20260906053604 | 21 | 127 | 1.6 | 4.8 | 0.00 | 0.00 | 0.00 | 53 | 1004.8 |
| 20260906053104 | 21 | 276 | 0.0 | 3.2 | 0.00 | 0.00 | 0.00 | 54 | 1004.7 |
| 20260906052604 | 22 | 315 | 1.6 | 3.2 | 0.00 | 0.00 | 0.00 | 53 | 1004.9 |
| 20260906052104 | 22 | 289 | 0.0 | 3.2 | 0.00 | 0.00 | 0.00 | 52 | 1005.0 |
| 20260906051604 | 22 | 242 | 0.0 | 4.8 | 0.00 | 0.00 | 0.00 | 51 | 1004.8 |
| 20260906050604 | 23 | 274 | 1.6 | 4.8 | 0.00 | 0.00 | 0.00 | 49 | 1004.8 |
| 20260906050104 | 23 | 281 | 0.0 | 8.0 | 0.00 | 0.00 | 0.00 | 48 | 1004.9 |
| 20260906045604 | 23 | 232 | 1.6 | 8.0 | 0.00 | 0.00 | 0.00 | 48 | 1005.0 |
| 20260906044604 | 23 | 279 | 0.0 | 1.6 | 0.00 | 0.00 | 0.00 | 48 | 1005.1 |
| 20260906043104 | 24 | 275 | 1.6 | 3.2 | 0.00 | 0.00 | 0.00 | 44 | 1005.5 |
| 20260906042604 | 24 | 222 | 0.0 | 3.2 | 0.00 | 0.00 | 0.00 | 39 | 1005.4 |
| 20260906042104 | 24 | 222 | 0.0 | 3.2 | 0.00 | 0.00 | 0.00 | 39 | 1005.3 |
| 20260906041604 | 24 | 219 | 0.0 | 3.2 | 0.00 | 0.00 | 0.00 | 38 | 1005.1 |
| 20260906041104 | 24 | 274 | 0.0 | 3.2 | 0.00 | 0.00 | 0.00 | 38 | 1004.8 |
| 20260906040104 | 24 | 264 | 0.0 | 4.8 | 0.00 | 0.00 | 0.00 | 39 | 1004.7 |
| 20260906035604 | 23 | 169 | 3.2 | 8.0 | 0.00 | 0.00 | 0.00 | 40 | 1004.9 |
| 20260906035104 | 23 | 185 | 3.2 | 8.0 | 0.00 | 0.00 | 0.00 | 46 | 1004.6 |
| 20260906034604 | 23 | 83 | 0.0 | 3.2 | 0.00 | 0.00 | 0.00 | 41 | 1004.1 |
| 20260906033104 | 23 | 344 | 0.0 | 0.0 | 0.00 | 0.00 | 0.00 | 40 | 1003.6 |
| 20260906032605 | 23 | 344 | 0.0 | 0.0 | 0.00 | 0.00 | 0.00 | 39 | 1003.6 |
| 20260906032104 | 23 | 344 | 0.0 | 0.0 | 0.00 | 0.00 | 0.00 | 39 | 1003.6 |
| 20260906031604 | 23 | 344 | 0.0 | 0.0 | 0.00 | 0.00 | 0.00 | 40 | 1003.5 |
| 20260906031104 | 23 | 344 | 0.0 | 0.0 | 0.00 | 0.00 | 0.00 | 38 | 1003.4 |
| 20260906030604 | 23 | 344 | 0.0 | 0.0 | 0.00 | 0.00 | 0.00 | 38 | 1003.2 |
| 20260906030105 | 24 | 344 | 0.0 | 0.0 | 0.00 | 0.00 | 0.00 | 39 | 1003.0 |
| 20260906025604 | 24 | 344 | 0.0 | 0.0 | 0.00 | 0.00 | 0.00 | 39 | 1002.9 |
| 20260906025105 | 24 | 344 | 0.0 | 0.0 | 0.00 | 0.00 | 0.00 | 39 | 1002.9 |
| 20260906024605 | 25 | 344 | 0.0 | 0.0 | 0.00 | 0.00 | 0.00 | 38 | 1002.8 |
| 20260906024104 | 25 | 344 | 0.0 | 0.0 | 0.00 | 0.00 | 0.00 | 38 | 1002.8 |
| 20260906023104 | 26 | 344 | 0.0 | 0.0 | 0.00 | 0.00 | 0.00 | 36 | 1002.7 |
| 20260906022605 | 26 | 344 | 0.0 | 0.0 | 0.00 | 0.00 | 0.00 | 35 | 1002.7 |
| 20260906022104 | 26 | 344 | 0.0 | 0.0 | 0.00 | 0.00 | 0.00 | 35 | 1002.7 |
| 20260906021605 | 26 | 344 | 0.0 | 0.0 | 0.00 | 0.00 | 0.00 | 34 | 1002.6 |
| 20260906021104 | 27 | 344 | 0.0 | 1.6 | 0.00 | 0.00 | 0.00 | 33 | 1002.6 |
| 20260906020605 | 27 | 344 | 0.0 | 1.6 | 0.00 | 0.00 | 0.00 | 33 | 1002.6 |
| 20260906020105 | 27 | 17 | 0.0 | 3.2 | 0.00 | 0.00 | 0.00 | 32 | 1002.6 |
| 20260906015105 | 27 | 346 | 0.0 | 3.2 | 0.00 | 0.00 | 0.00 | 30 | 1002.5 |
| 20260906014605 | 27 | 346 | 0.0 | 3.2 | 0.00 | 0.00 | 0.00 | 31 | 1002.4 |
| 20260906014104 | 27 | 335 | 0.0 | 0.0 | 0.00 | 0.00 | 0.00 | 32 | 1002.2 |
| 20260906013605 | 27 | 335 | 0.0 | 0.0 | 0.00 | 0.00 | 0.00 | 31 | 1002.1 |
| 20260906013104 | 28 | 335 | 0.0 | 0.0 | 0.00 | 0.00 | 0.00 | 31 | 1002.0 |
| 20260906012604 | 28 | 335 | 0.0 | 0.0 | 0.00 | 0.00 | 0.00 | 31 | 1001.9 |
| 20260906012105 | 28 | 335 | 0.0 | 0.0 | 0.00 | 0.00 | 0.00 | 30 | 1001.9 |
| 20260906011604 | 28 | 335 | 0.0 | 0.0 | 0.00 | 0.00 | 0.00 | 30 | 1001.8 |
| 20260906011105 | 29 | 335 | 0.0 | 0.0 | 0.00 | 0.00 | 0.00 | 29 | 1001.8 |
| 20260906010604 | 30 | 335 | 0.0 | 0.0 | 0.00 | 0.00 | 0.00 | 29 | 1001.8 |
| 20260906005604 | 30 | 335 | 0.0 | 0.0 | 0.00 | 0.00 | 0.00 | 28 | 1001.9 |
| 20260906005104 | 30 | 335 | 0.0 | 0.0 | 0.00 | 0.00 | 0.00 | 26 | 1001.9 |
| 20260906004604 | 31 | 335 | 0.0 | 0.0 | 0.00 | 0.00 | 0.00 | 26 | 1002.0 |
| 20260906004104 | 31 | 335 | 0.0 | 3.2 | 0.00 | 0.00 | 0.00 | 26 | 1002.0 |
| 20260906003604 | 31 | 335 | 0.0 | 3.2 | 0.00 | 0.00 | 0.00 | 25 | 1002.0 |
| 20260906003104 | 31 | 335 | 0.0 | 3.2 | 0.00 | 0.00 | 0.00 | 25 | 1002.0 |
| 20260906002605 | 31 | 335 | 0.0 | 3.2 | 0.00 | 0.00 | 0.00 | 24 | 1001.9 |
| 20260906002104 | 32 | 333 | 1.6 | 3.2 | 0.00 | 0.00 | 0.00 | 24 | 1001.9 |
| 20260906001605 | 32 | 17 | 0.0 | 3.2 | 0.00 | 0.00 | 0.00 | 24 | 1001.8 |
| 20260906001104 | 32 | 21 | 0.0 | 3.2 | 0.00 | 0.00 | 0.00 | 24 | 1001.9 |
| 20260906000605 | 32 | 50 | 0.0 | 3.2 | 0.00 | 0.00 | 0.00 | 23 | 1001.8 |
| 20260905235604 | 33 | 60 | 0.0 | 4.8 | 0.00 | 0.00 | 0.00 | 22 | 1001.7 |
| 20260905235104 | 33 | 70 | 3.2 | 4.8 | 0.00 | 0.00 | 0.00 | 22 | 1001.6 |
| 20260905234604 | 33 | 319 | 0.0 | 4.8 | 0.00 | 0.00 | 0.00 | 22 | 1001.5 |
| 20260905234104 | 33 | 329 | 1.6 | 4.8 | 0.00 | 0.00 | 0.00 | 22 | 1001.5 |
| 20260905233604 | 34 | 6 | 0.0 | 3.2 | 0.00 | 0.00 | 0.00 | 22 | 1001.6 |
| 20260905232604 | 33 | 227 | 1.6 | 3.2 | 0.00 | 0.00 | 0.00 | 22 | 1001.5 |
| 20260905232105 | 33 | 319 | 1.6 | 3.2 | 0.00 | 0.00 | 0.00 | 23 | 1001.6 |
| 20260905231605 | 33 | 331 | 0.0 | 3.2 | 0.00 | 0.00 | 0.00 | 23 | 1001.5 |
| 20260905230604 | 33 | 42 | 1.6 | 3.2 | 0.00 | 0.00 | 0.00 | 21 | 1001.5 |
| 20260905230105 | 34 | 10 | 1.6 | 4.8 | 0.00 | 0.00 | 0.00 | 22 | 1001.6 |
| 20260905225604 | 34 | 293 | 1.6 | 4.8 | 0.00 | 0.00 | 0.00 | 23 | 1001.6 |
| 20260905225104 | 34 | 242 | 1.6 | 4.8 | 0.00 | 0.00 | 0.00 | 23 | 1001.6 |
| 20260905224604 | 34 | 315 | 0.0 | 4.8 | 0.00 | 0.00 | 0.00 | 23 | 1001.7 |
| 20260905224104 | 34 | 313 | 1.6 | 4.8 | 0.00 | 0.00 | 0.00 | 23 | 1001.6 |
| 20260905223604 | 34 | 321 | 1.6 | 4.8 | 0.00 | 0.00 | 0.00 | 23 | 1001.7 |
| 20260905223104 | 35 | 351 | 3.2 | 4.8 | 0.00 | 0.00 | 0.00 | 21 | 1001.7 |